Regional Weather Roundup
Issued by NWS Glasgow, MT

Home | Current Version | Previous Version | Text Only | Print | Product List | Glossary On
Versions: 1 2 3 4 5 6 7 8 9 10 11 12 13 14 15 16 17 18 19 20 21 22 23 24 25 26 27 28 29 30 31 32 33 34 35 36 37 38 39 40 41 42 43 44 45 46 47 48 49 50
000
ASUS45 KGGW 271915
RWRGGW
HOURLY WEATHER ROUNDUP FOR NORTHEAST MONTANA
NATIONAL WEATHER SERVICE GLASGOW MONTANA
1200 PM MST TUE JAN 27 2015

NOTE: "FAIR" INDICATES FEW OR NO CLOUDS BELOW 12,000 FEET WITH NO
SIGNIFICANT WEATHER AND/OR OBSTRUCTIONS TO VISISBILITY.

NORTHEAST MONTANA


CITY           SKY/WX    TMP DP  RH WIND       PRES   REMARKS
GLASGOW        PTSUNNY   42  36  79 CALM      29.85F
PLENTYWOOD       N/A     43  35  73 S2          N/A
WOLF POINT     PTSUNNY   43  35  73 SW5       29.85F
JORDAN           N/A     51  35  54 CALM      29.86F
WINNETT          N/A     59  30  33 CALM        N/A
SIDNEY         MOSUNNY   48  37  66 S9        29.86F
GLENDIVE       PTSUNNY   46  36  66 SE9       29.88F
MALTA            N/A     47  37  68 CALM        N/A
SCOBEY           N/A     47  35  63 CALM      29.81F

FORT PECK REPORTS


CITY           SKY/WX    TMP DP  RH WIND       PRES   REMARKS
FORT PECK        N/A     42  32  67 S9          N/A
THE PINES        N/A     54  32  43 SW5         N/A

SOUTHEAST MONTANA


CITY           SKY/WX    TMP DP  RH WIND       PRES   REMARKS
BILLINGS       PTSUNNY   60  29  30 SW14      29.93F
MILES CITY     MOSUNNY   52  35  52 SW3       29.89F
BAKER          MOSUNNY   55  35  47 W9        29.90F
LIVINGSTON     SUNNY     63  23  21 SW21G35   29.96F

CENTRAL MONTANA


CITY           SKY/WX    TMP DP  RH WIND       PRES   REMARKS
HAVRE          CLOUDY    55  35  47 SW20      29.83F
LEWISTOWN      PTSUNNY   58  31  35 CALM      29.92F
GREAT FALLS    PTSUNNY   64  25  22 SW21      29.89F
CUT BANK         N/A    N/A N/A N/A MISG      29.86F
HELENA         MOSUNNY   42  32  67 CALM      30.01F
BUTTE          PTSUNNY   37  28  70 SE3       30.04F
BOZEMAN        PTSUNNY   43  30  60 NW3       30.02F

WESTERN MONTANA


CITY           SKY/WX    TMP DP  RH WIND       PRES   REMARKS
MISSOULA       PTSUNNY   30  28  92 W5        30.07F
KALISPELL      NOT AVBL

NORTH DAKOTA


CITY           SKY/WX    TMP DP  RH WIND       PRES   REMARKS
WILLISTON      PTSUNNY   46  34  62 S5        29.83F
DICKINSON      SUNNY     60  36  40 W9        29.83F
MINOT          PTSUNNY   44  34  67 SW7       29.80F
BISMARCK       MOSUNNY   47  32  56 SW10      29.87F

SOUTHERN SASKATCHEWAN


CITY           SKY/WX    TMP DP  RH WIND       PRES   REMARKS
REGINA         CLOUDY    34  28  80 N2        29.79R
MOOSE JAW      CLOUDY    34  32  93 NW8       29.80R
ESTEVAN        CLOUDY    41  36  81 SW7       29.78F
SWIFT CURRENT  PTSUNNY   39  34  81 W8        29.77S



USA.gov is the U.S. government's official web portal to all federal, state and local government web resources and services.